This demonstration page uses our WeatherBlox Daily Observations layout. Learn more.

Left ArrowRight Arrow

39.92423, -83.80882

Hourly Observations for January 13, 2022

Temp ( °F °C ) Dew Point ( °F °C ) Humidity (%) Winds ( mph kmh ) Pressure ( in mb ) Visibility ( mi km ) Precip ( " mm )
12:56 am 00:56 Clear 37 2.8 27 -2.8 67 67 S 6 9 29.99 1016 10 16 0.00 0.00
1:56 am 01:56 Mostly Clear 36 2.2 28 -2.2 73 73 S 5 7 29.97 1015 10 16 0.00 0.00
2:56 am 02:56 Clear 35 1.7 28 -2.2 76 76 S 7 11 29.96 1015 10 16 0.00 0.00
3:56 am 03:56 Mostly Cloudy 36 2.2 29 -1.7 76 76 SSW 8 13 29.95 1014 10 16 0.00 0.00
4:56 am 04:56 Mostly Clear 35 1.7 28 -2.2 76 76 SSW 6 9 29.92 1013 10 16 0.00 0.00
5:56 am 05:56 Mostly Cloudy 31 -0.6 28 -2.2 89 89 SSE 3 6 29.92 1013 10 16 0.00 0.00
6:56 am 06:56 Clear 33 0.6 27 -2.8 78 78 S 5 7 29.91 1013 10 16 0.00 0.00
7:56 am 07:56 Sunny 33 0.6 28 -2.2 82 82 S 6 9 29.90 1013 10 16 0.00 0.00
8:56 am 08:56 Sunny 34 1.1 28 -2.2 79 79 S 3 6 29.90 1013 10 16 0.00 0.00
9:56 am 09:56 Sunny 36 2.2 30 -1.1 79 79 S 5 7 29.88 1012 10 16 0.00 0.00
10:56 am 10:56 Mostly Cloudy 39 3.9 30 -1.1 70 70 SW 9 15 29.87 1012 10 16 0.00 0.00
11:56 am 11:56 Cloudy 42 5.6 31 -0.6 65 65 WSW 5 7 29.85 1011 10 16 0.00 0.00
12:56 pm 12:56 Sunny 45 7.2 32 0 61 61 NW 6 9 29.83 1010 10 16 0.00 0.00
1:56 pm 13:56 Cloudy 43 6.1 32 0 65 65 NNW 8 13 29.82 1010 10 16 0.00 0.00
2:56 pm 14:56 Cloudy 43 6.1 33 0.6 68 68 WNW 3 6 29.82 1010 10 16 0.00 0.00
3:56 pm 15:56 Cloudy 42 5.6 33 0.6 71 71 NNW 5 7 29.84 1010 10 16 0.00 0.00
4:56 pm 16:56 Mostly Cloudy 39 3.9 32 0 76 76 NNW 5 7 29.85 1011 10 16 0.00 0.00
5:56 pm 17:56 Mostly Clear 37 2.8 32 0 82 82 NW 5 7 29.88 1012 10 16 0.00 0.00
6:56 pm 18:56 Cloudy 37 2.8 33 0.6 86 86 NNW 5 7 29.91 1013 10 16 0.00 0.00
7:56 pm 19:56 Cloudy 37 2.8 34 1.1 89 89 N 7 11 29.93 1014 10 16 0.00 0.00
8:56 pm 20:56 Cloudy 37 2.8 33 0.6 86 86 N 7 11 29.93 1014 10 16 0.00 0.00
9:56 pm 21:56 Cloudy 36 2.2 34 1.1 93 93 N 8 13 29.95 1014 10 16 0.00 0.00
10:56 pm 22:56 Cloudy 35 1.7 34 1.1 96 96 N 6 9 29.97 1015 9 14 0.00 0.00
11:56 pm 23:56 Cloudy 34 1.1 34 1.1 100 100 N 8 13 29.98 1015 7 11 0.00 0.00

Powered by AerisWeather